Estación Meteorológica de la Universidad de Murcia
Estación Meteorológica de la Universidad de Murcia
Universidad de Murcia
 

Velocidad y dirección del vientoVelocidad y dirección del viento

 

Velocidad: 34,2 km/h a las 15:34:00 del día 19/06/2019
Dirección del viento: 297,3 º NW Rosa de los vientos a las 15:34:00 del día 19/06/2019

Nota:
N (entre 337,6º y 22,5º), NE (entre 22,6º y 67,5º), E (entre 67,6º y 112,5º), SE (entre 112,6º y 157,5º), S (entre 157,6º y 202,5º), SW (entre 202,6º y 247,5º), W (entre 247,5º y 292,5º) y NW (entre 292,6º y 337,5º)

||Velocidad últimos meses|| ----||Dirección del viento||


Velocidad

  • 1 - 34,2 km/h del día 19/06/2019
  • 2 - 28,8 km/h del día 18/06/2019
  • 3 - 28,08 km/h del día 17/06/2019
  • 4 - 30,24 km/h del día 16/06/2019
  • 5 - 44,64 km/h del día 15/06/2019
  • 6 - 34,56 km/h del día 14/06/2019
  • 7 - 36,72 km/h del día 13/06/2019
  • 8 - 38,16 km/h del día 12/06/2019
  • 9 - 43,2 km/h del día 11/06/2019
  • 10 - 38,16 km/h del día 10/06/2019
  • 11 - 29,88 km/h del día 09/06/2019
  • 12 - 43,56 km/h del día 08/06/2019
  • 13 - 29,52 km/h del día 07/06/2019
  • 14 - 39,96 km/h del día 06/06/2019
  • 15 - 45 km/h del día 05/06/2019
  • 16 - 25,56 km/h del día 04/06/2019
  • 17 - 25,56 km/h del día 03/06/2019
  • 18 - 33,84 km/h del día 02/06/2019
  • 19 - 30,96 km/h del día 01/06/2019
  • 20 - 31,32 km/h del día 31/05/2019
  • 21 - 29,16 km/h del día 30/05/2019
  • 22 - 35,64 km/h del día 29/05/2019
  • 23 - 36,72 km/h del día 28/05/2019
  • 24 - 32,04 km/h del día 27/05/2019
  • 25 - 38,88 km/h del día 26/05/2019
  • 26 - 24,84 km/h del día 25/05/2019
  • 27 - 38,88 km/h del día 24/05/2019
  • 28 - 28,44 km/h del día 23/05/2019
  • 29 - 31,32 km/h del día 22/05/2019
  • 30 - 34,56 km/h del día 21/05/2019
  • 31 - 32,04 km/h del día 20/05/2019
  • 32 - 29,52 km/h del día 19/05/2019
  • 33 - 29,16 km/h del día 18/05/2019
  • 34 - 43,56 km/h del día 17/05/2019
  • 35 - 33,12 km/h del día 16/05/2019
  • 36 - 39,96 km/h del día 15/05/2019
  • 37 - 31,32 km/h del día 14/05/2019
  • 38 - 27,36 km/h del día 13/05/2019
  • 39 - 32,4 km/h del día 12/05/2019
  • 40 - 40,68 km/h del día 11/05/2019
  • 41 - 30,24 km/h del día 10/05/2019
  • 42 - 23,76 km/h del día 09/05/2019
  • 43 - 36,72 km/h del día 08/05/2019
  • 44 - 25,56 km/h del día 07/05/2019
  • 45 - 32,04 km/h del día 06/05/2019
  • 46 - 29,16 km/h del día 05/05/2019
  • 47 - 31,68 km/h del día 04/05/2019
  • 48 - 37,08 km/h del día 03/05/2019
  • 49 - 32,4 km/h del día 02/05/2019
  • 50 - 32,04 km/h del día 01/05/2019
  • 51 - 31,32 km/h del día 30/04/2019
  • 52 - 33,84 km/h del día 29/04/2019
  • 53 - 26,64 km/h del día 28/04/2019
  • 54 - 26,64 km/h del día 27/04/2019
  • 55 - 25,92 km/h del día 26/04/2019
  • 56 - 36,36 km/h del día 25/04/2019
  • 57 - 37,08 km/h del día 24/04/2019
  • 58 - 34,56 km/h del día 23/04/2019
  • 59 - 30,24 km/h del día 22/04/2019
  • 60 - 24,84 km/h del día 21/04/2019

||Volver al inicio de la página||


Dirección del viento

  • 1 - 1466.12 º 1466,12 del día 31/05/2019
  • 2 - 1490.02 º 1490,02 del día 30/05/2019
  • 3 - 1370.21 º 1370,21 del día 30/04/2019
  • 4 - 1269.05 º 1269,05 del día 29/05/2019
  • 5 - 1404.71 º 1404,71 del día 29/04/2019
  • 6 - 1084.61 º 1084,61 del día 28/05/2019
  • 7 - 1481.95 º 1481,95 del día 28/04/2019
  • 8 - 1668.19 º 1668,19 del día 27/05/2019
  • 9 - 1620.78 º 1620,78 del día 27/04/2019
  • 10 - 1893.19 º 1893,19 del día 26/05/2019
  • 11 - 1936.22 º 1936,22 del día 26/04/2019
  • 12 - 1683.62 º 1683,62 del día 25/05/2019
  • 13 - 1903.55 º 1903,55 del día 25/04/2019
  • 14 - 1514.75 º 1514,75 del día 24/05/2019
  • 15 - 2042.31 º 2042,31 del día 24/04/2019
  • 16 - 1347.54 º 1347,54 del día 23/05/2019
  • 17 - 2194.8 º 2194,8 del día 23/04/2019
  • 18 - 1742.32 º 1742,32 del día 22/05/2019
  • 19 - 2449.38 º 2449,38 del día 22/04/2019
  • 20 - 1056.33 º 1056,33 del día 21/05/2019
  • 21 - 1959.59 º 1959,59 del día 21/04/2019
  • 22 - 1039.21 º 1039,21 del día 20/06/2019
  • 23 - 1396.43 º 1396,43 del día 20/05/2019
  • 24 - 1533.6 º 1533,6 del día 20/04/2019
  • 25 - 1586.97 º 1586,97 del día 19/06/2019
  • 26 - 2040.41 º 2040,41 del día 19/05/2019
  • 27 - 1507.61 º 1507,61 del día 18/06/2019
  • 28 - 1586.09 º 1586,09 del día 18/05/2019
  • 29 - 1708.49 º 1708,49 del día 17/06/2019
  • 30 - 2018.26 º 2018,26 del día 17/05/2019
  • 31 - 1336.51 º 1336,51 del día 16/06/2019
  • 32 - 977.74 º N del día 16/05/2019
  • 33 - 1853.8 º 1853,8 del día 15/06/2019
  • 34 - 1656.29 º 1656,29 del día 15/05/2019
  • 35 - 1933.32 º 1933,32 del día 14/06/2019
  • 36 - 1732.9 º 1732,9 del día 14/05/2019
  • 37 - 916.03 º N del día 13/06/2019
  • 38 - 951.95 º N del día 13/05/2019
  • 39 - 995.06 º N del día 12/06/2019
  • 40 - 917.31 º N del día 12/05/2019
  • 41 - 1323.76 º 1323,76 del día 11/06/2019
  • 42 - 1831.73 º 1831,73 del día 11/05/2019
  • 43 - 1828.82 º 1828,82 del día 10/06/2019
  • 44 - 1924.69 º 1924,69 del día 10/05/2019
  • 45 - 2116.86 º 2116,86 del día 09/06/2019
  • 46 - 1985.42 º 1985,42 del día 09/05/2019
  • 47 - 1444.26 º 1444,26 del día 08/06/2019
  • 48 - 2058.68 º 2058,68 del día 08/05/2019
  • 49 - 1662.74 º 1662,74 del día 07/06/2019
  • 50 - 1468.69 º 1468,69 del día 07/05/2019
  • 51 - 1609.64 º 1609,64 del día 06/06/2019
  • 52 - 1196.79 º 1196,79 del día 06/05/2019
  • 53 - 1777.08 º 1777,08 del día 05/06/2019
  • 54 - 1394.41 º 1394,41 del día 05/05/2019
  • 55 - 1485.14 º 1485,14 del día 04/06/2019
  • 56 - 1968.42 º 1968,42 del día 04/05/2019
  • 57 - 1458.62 º 1458,62 del día 03/06/2019
  • 58 - 1502.01 º 1502,01 del día 03/05/2019
  • 59 - 1539.93 º 1539,93 del día 02/06/2019
  • 60 - 1339.37 º 1339,37 del día 02/05/2019
  • 61 - 1511.61 º 1511,61 del día 01/06/2019
  • 62 - 1024.69 º 1024,69 del día 01/05/2019

|| Temperatura Ambiente|| Humedad relativa|| Precipitación|| Radiación Solar Global y PAR|| Temperatura y humedad del suelo|| Presión atmosférica|| Más información|| Volver a la página principal|| Volver al inicio de la página||


Estación Meteorológica de la Universidad de Murcia
http://estacion.um.es/
Informacion actualizada a: 20/06/2019 a las 00:51:00